Regional Weather Roundup
Issued by NWS San Angelo, TX

Home | Current Version | Previous Version | Text Only | Print | Product List | Glossary On
Versions: 1 2 3 4 5 6 7 8 9 10 11 12 13 14 15 16 17 18 19 20 21 22 23 24 25 26 27 28 29 30 31 32 33 34 35 36 37 38 39 40 41 42 43 44 45 46 47 48 49 50
000
ASUS44 KSJT 070010
RWRSJT
WEST CENTRAL TEXAS REGIONAL WEATHER ROUNDUP
NATIONAL WEATHER SERVICE SAN ANGELO TX
600 PM CST FRI MAR 06 2015

NOTE: "FAIR" INDICATES FEW OR NO CLOUDS BELOW 12,000 FEET WITH NO
SIGNIFICANT WEATHER AND/OR OBSTRUCTIONS TO VISIBILITY.

TXZ049-054-064>066-071>073-076>078-098-099-113-114-127-128-139-140-
154-155-168>170-070100
...LOCATIONS ACROSS WEST CENTRAL TEXAS...

CITY           SKY/WX    TMP DP  RH WIND       PRES   REMARKS
SAN ANGELO     CLEAR     58  27  30 SE6       30.35F
ABILENE        CLEAR     53  25  33 S8        30.38F
DYESS AFB      CLEAR     54  27  36 S10       30.36F
JUNCTION       CLEAR     58  22  24 SE8       30.37F
SWEETWATER     CLEAR     54  28  36 SE9       30.38S
BROWNWOOD      CLEAR     52  25  35 SE8       30.41S
COLEMAN        CLEAR     53  30  41 S7        30.39S
SONORA         CLEAR     57  25  28 S7        30.40S
OZONA          FAIR      55  27  33 S12       30.38S
BRADY          CLEAR     54  21  28 SE7       30.38F
$$

TEXAS PANHANDLE/OKLAHOMA PANHANDLE

CITY           SKY/WX    TMP DP  RH WIND       PRES   REMARKS
AMARILLO       CLEAR     59  24  26 S13       30.27S
BORGER         CLEAR     63  23  21 S6        30.25S
CANADIAN       CLEAR     61  31  32 S10       30.25S
DALHART        CLEAR     61  23  23 S12       30.25S
DUMAS          CLEAR     60  23  23 S5        30.25S
GUYMON         NOT AVBL
HEREFORD       CLEAR     60  28  28 SW7       30.27S
PAMPA          CLEAR     58  30  33 S10       30.27S
PERRYTON         N/A     60  26  27 S8        30.24S
$$

SOUTHERN PANHANDLE/SOUTH PLAINS/ROLLING PLAINS

CITY           SKY/WX    TMP DP  RH WIND       PRES   REMARKS
LUBBOCK        CLEAR     55  26  32 S12       30.30F
SNYDER         CLEAR     55  31  40 S9        30.35S
CHILDRESS      CLEAR     58  27  30 S13       30.32S
SEMINOLE       CLEAR     56  26  30 CALM      30.32S
$$

PERMIAN BASIN

CITY           SKY/WX    TMP DP  RH WIND       PRES   REMARKS
MIDLAND        CLEAR     56  27  32 S7        30.32S
ODESSA         CLEAR     56  26  31 SE7       30.32F
WINK           SUNNY     57  26  30 SE9       30.29F
$$

FAR WEST/SOUTHWEST MOUNTAINS/TRANS PECOS

CITY           SKY/WX    TMP DP  RH WIND       PRES   REMARKS
ALPINE         CLEAR     57  34  42 E12       30.34S
DRYDEN           N/A     53  24  32 E10       30.34S
EL PASO        SUNNY     64  11  12 E9        30.20F
FORT STOCKTON  SUNNY     55  33  43 SE13      30.30S
GUADALUPE PASS NOT AVBL
MARFA          SUNNY     59  30  33 E13G23    30.29S
PECOS          CLEAR     57  32  38 E10       30.29F
$$

DALLAS/FORT WORTH METROPLEX

CITY           SKY/WX    TMP DP  RH WIND       PRES   REMARKS
DFW AIRPORT    PTCLDY    49  27  42 SE6       30.44F
FTW MEACHAM    CLEAR     51  27  39 S8        30.43F
DAL-EXECUTIVE  CLEAR     50  27  40 E7        30.43F
GRAND PRAIRIE  NOT AVBL
ADDISON        CLEAR     50  19  29 CALM      30.45F
MESQUITE       CLEAR     48  28  46 SE5       30.46F
LANCASTER      CLEAR     49  28  45 CALM      30.46F
$$

NORTH CENTRAL TEXAS

CITY           SKY/WX    TMP DP  RH WIND       PRES   REMARKS
SHRMAN/DENISON CLEAR     49  35  58 S8        30.45S
GAINESVILLE    CLEAR     49  29  46 SE7       30.44F
BRIDGEPORT     CLEAR     53  28  38 S5        30.44S
DENTON         CLEAR     50  28  42 S6        30.44S
WAXAHACHIE     CLEAR     49  31  48 SE3       30.46S
GRANBURY       CLEAR     54  24  31 S3        30.44S
$$

WESTERN NORTH TEXAS

CITY           SKY/WX    TMP DP  RH WIND       PRES   REMARKS
WICHITA FALLS  CLEAR     52  28  39 S12       30.38F
VERNON         CLEAR     56  25  30 S9        30.37S
BRECKENRIDGE   CLEAR     55  24  30 SW3       30.39F
COMANCHE       CLEAR     53  26  35 CALM      30.41S
$$

CENTRAL AND SOUTH CENTRAL TEXAS

CITY           SKY/WX    TMP DP  RH WIND       PRES   REMARKS
AUSTIN/BERGSTM PTCLDY    52  27  38 NE6       30.46S
WACO           CLEAR     51  27  39 E6        30.46S
HILLSBORO      CLEAR     51  30  45 E3        30.45S
TEMPLE         CLEAR     52  25  35 E8        30.45R
KILLEEN-GRAY   PTCLDY    51  22  31 E3        30.43S
FORT HOOD      PTCLDY    52  24  34 E6        30.43S
GEORGETOWN     CLEAR     52  25  35 E7        30.45S
LAGO VISTA     FAIR      52  27  37 E6        30.44S
SAN MARCOS     CLEAR     54  21  28 NE6       30.46S
NEW BRAUNFELS  CLEAR     53  24  32 SE3       30.44S
RANDOLPH AFB   CLOUDY    53  26  35 SE6       30.44S
SAN ANTONIO    MOCLDY    53  27  36 SE10      30.44F
STINSON        CLOUDY    52  26  36 S6        30.44F
PLEASANTON     NOT AVBL
LA GRANGE      CLEAR     54  24  32 CALM      30.45R
GIDDINGS       CLEAR     53  22  30 CALM      30.49S
$$

EAST TEXAS

CITY           SKY/WX    TMP DP  RH WIND       PRES   REMARKS
PARIS          CLEAR     48  27  43 CALM      30.47S
CLARKSVILLE    NOT AVBL
TYLER          CLEAR     52  19  27 CALM      30.46S
LONGVIEW       CLEAR     50  23  34 CALM      30.47S
PALESTINE      CLEAR     52  21  30 NE5       30.47S
NACOGDOCHES    CLEAR     52  18  25 CALM      30.47S
$$

TEXAS HILL COUNTRY AND EDWARDS PLATEAU

CITY           SKY/WX    TMP DP  RH WIND       PRES   REMARKS
LLANO          CLEAR     55  23  28 SE6       30.45F
HORSESHOE BAY  FAIR      55  20  26 CALM      30.43S
KERRVILLE      CLEAR     54  23  30 S6        30.41S
FREDERICKSBRG  CLEAR     53  22  30 E5        30.40S
ROCKSPRINGS    NOT AVBL
HONDO          CLOUDY    53  23  31 S7        30.46S
UVALDE         CLOUDY    51  23  32 S7        30.45S
DEL RIO        CLOUDY    51  21  30 SE14      30.42S
$$

SOUTHEAST TEXAS

CITY           SKY/WX    TMP DP  RH WIND       PRES   REMARKS
COLLEGE STN    CLEAR     52  21  29 E6        30.46F
CALDWELL       CLEAR     52  18  25 NE3       30.49S
CROCKETT       CLEAR     54  27  35 N3        30.50R
BRENHAM        CLEAR     53  23  30 CALM      30.47S
HUNTSVILLE     CLEAR     52  23  32 CALM      30.46S
CONROE         CLEAR     51  21  30 E7        30.47S
HOUSTON BUSH   PTCLDY    53  20  27 NE6       30.46S
HOUSTON HOBBY  PTCLDY    53  21  28 CALM      30.46S
PERLAND        CLEAR     54  21  27 E6        30.48S
WHARTON        CLEAR     51  28  41 NE3       30.48S
$$

THE UPPER TEXAS COAST

CITY           SKY/WX    TMP DP  RH WIND       PRES   REMARKS
ORANGE         CLEAR     52  20  28 CALM      30.47S
PORT ARTHUR    CLEAR     53  19  26 N7        30.46S
GALVESTON      PTCLDY    49  24  37 N5        30.48S
ANGLETON       CLEAR     50  22  33 E3        30.47S
BAY CITY       CLEAR     54  22  29 NE5       30.47S
$$

TEXAS COASTAL BEND, RIO GRANDE PLAINS DEEP SOUTH TEXAS

CITY           SKY/WX    TMP DP  RH WIND       PRES   REMARKS
VICTORIA       MOCLDY    54  26  34 NE3       30.48R
BEEVILLE       CLOUDY    49  28  42 SW6       30.46F
ROCKPORT       CLOUDY    47  28  47 CALM      30.48F
PORT ARANSAS   MOCLDY    46  27  47 CALM      30.49S
PORT LAVACA    CLOUDY    52  27  37 NE7       30.48R
CORPUS CHRISTI CLOUDY    50  24  36 CALM      30.48F
KINGSVILLE NAS CLOUDY    49  25  39 CALM      30.50R
COTULLA        CLOUDY    52  21  29 VRB3      30.47S
LAREDO         CLOUDY    51  18  27 E6        30.49S
BROWNSVILLE    CLOUDY    49  39  68 N8        30.48R
PORT ISABEL    CLOUDY    49  38  65 N12       30.48R
HEBBRONVILLE   CLOUDY   N/A N/A N/A CALM      30.49R
MCALLEN        CLOUDY    53  27  36 N3        30.49S
WESLACO        CLOUDY    52  27  38 N3        30.49R HAZE
FALFURRIAS     CLOUDY    49  21  33 CALM      30.50R
EDINBURG       CLOUDY    53  22  30 NE5       30.49F
$$



USA.gov is the U.S. government's official web portal to all federal, state and local government web resources and services.